Location: *
(37.5724°S, 58.0067°E)
Time: 12:15:35
(UTC+00:00)

Genesis I - Pass Details

Date: 22 January 2021
Orbit: 488 x 532 km, 64.5° (Epoch: 05 March)

Event Time Altitude Azimuth Distance (km) Brightness Sun altitude
Exits shadow 22:13:29 31° 198° (SSW) 958 4.8 -27.0°
Drops below altitude 10° 22:16:07 10° 165° (SSE) 1,779 6.8 -26.7°
Sets 22:18:25 0° 157° (SSE) 2,666 8.1 -26.5°
